| time (UTC) | temp F | wind direction | speed knots | gust knots | rain 1hr in | rain 24hr in | rain mn in | humidity % | barometer mb |
| 20260504150745 | 60 | 287 | 2.6 | 8.7 | 0.00 | 0.00 | 0.00 | 40 | 1012.9 |
| 20260504150242 | 61 | 308 | 1.7 | 12.2 | 0.00 | 0.00 | 0.00 | 38 | 1012.9 |
| 20260504141211 | 60 | 320 | 3.5 | 6.1 | 0.00 | 0.00 | 0.00 | 38 | 1013.2 |
| 20260504140708 | 60 | 224 | 1.7 | 6.1 | 0.00 | 0.00 | 0.00 | 39 | 1013.2 |
| 20260504140203 | 59 | 246 | 0.9 | 7.8 | 0.00 | 0.00 | 0.00 | 38 | 1013.2 |
| 20260504130632 | 56 | 262 | 0.9 | 7.8 | 0.00 | 0.00 | 0.00 | 43 | 1013.7 |
| 20260504130129 | 55 | 11 | 2.6 | 8.7 | 0.00 | 0.00 | 0.00 | 44 | 1013.5 |
| 20260504110520 | 48 | 215 | 0.0 | 4.3 | 0.00 | 0.00 | 0.00 | 54 | 1013.6 |
| 20260504100442 | 47 | 316 | 2.6 | 3.5 | 0.00 | 0.00 | 0.00 | 56 | 1013.4 |
| 20260504081840 | 47 | 110 | 0.0 | 1.7 | 0.00 | 0.00 | 0.00 | 56 | 1013.2 |
| 20260504081337 | 47 | 11 | 0.0 | 6.1 | 0.00 | 0.00 | 0.00 | 55 | 1013.2 |
| 20260504080833 | 47 | 44 | 0.0 | 2.6 | 0.00 | 0.00 | 0.00 | 55 | 1013.4 |
| 20260504080330 | 47 | 108 | 2.6 | 7.0 | 0.00 | 0.00 | 0.00 | 55 | 1013.5 |
| 20260504070257 | 48 | 121 | 1.7 | 3.5 | 0.00 | 0.00 | 0.00 | 55 | 1013.3 |
| 20260504060218 | 48 | 331 | 2.6 | 4.3 | 0.00 | 0.00 | 0.00 | 53 | 1013.2 |
| 20260504050645 | 49 | 232 | 0.0 | 2.6 | 0.00 | 0.00 | 0.00 | 52 | 1013.1 |
| 20260504050142 | 49 | 304 | 2.6 | 9.6 | 0.00 | 0.00 | 0.00 | 50 | 1012.7 |
| 20260504045640 | 49 | 269 | 1.7 | 5.2 | 0.00 | 0.00 | 0.00 | 51 | 1012.9 |
| 20260504045140 | 49 | 194 | 1.7 | 2.6 | 0.00 | 0.00 | 0.00 | 51 | 1012.9 |
| 20260504044638 | 49 | 250 | 1.7 | 2.6 | 0.00 | 0.00 | 0.00 | 52 | 1013.0 |
| 20260504044134 | 49 | 344 | 0.0 | 2.6 | 0.00 | 0.00 | 0.00 | 52 | 1012.8 |
| 20260504043632 | 49 | 317 | 0.9 | 5.2 | 0.00 | 0.00 | 0.00 | 50 | 1012.7 |
| 20260504043129 | 49 | 87 | 0.9 | 4.3 | 0.00 | 0.00 | 0.00 | 51 | 1012.9 |
| 20260504042626 | 49 | 299 | 0.0 | 2.6 | 0.00 | 0.00 | 0.00 | 51 | 1012.8 |
| 20260504042123 | 49 | 352 | 1.7 | 2.6 | 0.00 | 0.00 | 0.00 | 51 | 1012.8 |
| 20260504041618 | 49 | 114 | 0.0 | 3.5 | 0.00 | 0.00 | 0.00 | 52 | 1012.8 |
| 20260504041115 | 49 | 173 | 0.0 | 1.7 | 0.00 | 0.00 | 0.00 | 50 | 1012.6 |
| 20260504040612 | 49 | 41 | 2.6 | 2.6 | 0.00 | 0.00 | 0.00 | 50 | 1012.4 |
| 20260504040109 | 49 | 322 | 0.9 | 3.5 | 0.00 | 0.00 | 0.00 | 49 | 1012.4 |
| 20260504035606 | 50 | 134 | 0.0 | 3.5 | 0.00 | 0.00 | 0.00 | 50 | 1012.4 |
| 20260504035102 | 50 | 77 | 0.0 | 2.6 | 0.00 | 0.00 | 0.00 | 48 | 1012.4 |
| 20260504034600 | 49 | 121 | 0.9 | 2.6 | 0.00 | 0.00 | 0.00 | 49 | 1012.5 |
| 20260504034056 | 49 | 33 | 1.7 | 1.7 | 0.00 | 0.00 | 0.00 | 50 | 1012.5 |
| 20260504033554 | 49 | 102 | 0.0 | 2.6 | 0.00 | 0.00 | 0.00 | 49 | 1012.4 |
| 20260504033051 | 49 | 328 | 1.7 | 1.7 | 0.00 | 0.00 | 0.00 | 50 | 1012.5 |
| 20260504032548 | 49 | 76 | 0.0 | 1.7 | 0.00 | 0.00 | 0.00 | 50 | 1012.5 |
| 20260504032045 | 49 | 165 | 0.9 | 2.6 | 0.00 | 0.00 | 0.00 | 50 | 1012.5 |
| 20260504031542 | 49 | 312 | 0.0 | 4.3 | 0.00 | 0.00 | 0.00 | 49 | 1012.5 |
| 20260504031038 | 49 | 320 | 0.0 | 2.6 | 0.00 | 0.00 | 0.00 | 50 | 1012.6 |
| 20260504030536 | 49 | 69 | 0.9 | 1.7 | 0.00 | 0.00 | 0.00 | 50 | 1012.5 |
| 20260504030032 | 49 | 129 | 0.0 | 1.7 | 0.00 | 0.00 | 0.00 | 49 | 1012.5 |
| 20260504025529 | 49 | 174 | 0.0 | 1.7 | 0.00 | 0.00 | 0.00 | 50 | 1012.3 |
| 20260504025026 | 49 | 72 | 0.9 | 2.6 | 0.00 | 0.00 | 0.00 | 51 | 1012.4 |
| 20260504024523 | 48 | 71 | 1.7 | 4.3 | 0.00 | 0.00 | 0.00 | 50 | 1012.5 |
| 20260504024020 | 48 | 293 | 0.0 | 0.9 | 0.00 | 0.00 | 0.00 | 51 | 1012.7 |
| 20260504023516 | 48 | 38 | 0.0 | 1.7 | 0.00 | 0.00 | 0.00 | 52 | 1012.6 |
| 20260504023012 | 48 | 106 | 0.0 | 1.7 | 0.00 | 0.00 | 0.00 | 51 | 1012.6 |
| 20260504022508 | 48 | 44 | 0.0 | 1.7 | 0.00 | 0.00 | 0.00 | 50 | 1012.6 |
| 20260504022005 | 48 | 135 | 1.7 | 1.7 | 0.00 | 0.00 | 0.00 | 52 | 1012.6 |
| 20260504021502 | 49 | 63 | 0.0 | 1.7 | 0.00 | 0.00 | 0.00 | 49 | 1012.7 |
| 20260504020959 | 49 | 58 | 1.7 | 2.6 | 0.00 | 0.00 | 0.00 | 49 | 1012.5 |
| 20260504020456 | 49 | 45 | 0.9 | 1.7 | 0.00 | 0.00 | 0.00 | 49 | 1012.7 |
| 20260504015953 | 49 | 89 | 0.0 | 1.7 | 0.00 | 0.00 | 0.00 | 49 | 1012.4 |
| 20260504015449 | 49 | 111 | 1.7 | 2.6 | 0.00 | 0.00 | 0.00 | 50 | 1012.6 |
| 20260504014944 | 49 | 60 | 0.0 | 1.7 | 0.00 | 0.00 | 0.00 | 47 | 1012.5 |
| 20260504014441 | 49 | 53 | 0.0 | 0.9 | 0.00 | 0.00 | 0.00 | 48 | 1012.5 |
| 20260504013938 | 49 | 25 | 0.9 | 0.9 | 0.00 | 0.00 | 0.00 | 49 | 1012.4 |
| 20260504013437 | 49 | 40 | 0.0 | 1.7 | 0.00 | 0.00 | 0.00 | 48 | 1012.3 |
| 20260504012932 | 49 | 231 | 0.0 | 3.5 | 0.00 | 0.00 | 0.00 | 48 | 1012.4 |
| 20260504012430 | 49 | 135 | 0.0 | 1.7 | 0.00 | 0.00 | 0.00 | 49 | 1012.5 |
| 20260504011928 | 49 | 39 | 0.9 | 1.7 | 0.00 | 0.00 | 0.00 | 49 | 1012.3 |
| 20260504011424 | 49 | 66 | 0.0 | 2.6 | 0.00 | 0.00 | 0.00 | 49 | 1012.2 |
| 20260504010920 | 50 | 51 | 0.0 | 1.7 | 0.00 | 0.00 | 0.00 | 48 | 1012.2 |
| 20260504010416 | 50 | 113 | 0.0 | 2.6 | 0.00 | 0.00 | 0.00 | 48 | 1012.1 |
| 20260504005913 | 50 | 91 | 0.0 | 2.6 | 0.00 | 0.00 | 0.00 | 48 | 1012.1 |
| 20260504005409 | 50 | 115 | 0.9 | 2.6 | 0.00 | 0.00 | 0.00 | 45 | 1012.0 |
| 20260504004907 | 50 | 93 | 1.7 | 2.6 | 0.00 | 0.00 | 0.00 | 44 | 1012.1 |
| 20260504004405 | 50 | 116 | 0.9 | 2.6 | 0.00 | 0.00 | 0.00 | 44 | 1012.0 |
| 20260504003901 | 50 | 114 | 0.9 | 1.7 | 0.00 | 0.00 | 0.00 | 44 | 1012.1 |
| 20260504003358 | 50 | 118 | 0.9 | 2.6 | 0.00 | 0.00 | 0.00 | 45 | 1011.6 |
| 20260504002854 | 51 | 130 | 0.9 | 2.6 | 0.00 | 0.00 | 0.00 | 45 | 1011.7 |
| 20260504002351 | 51 | 118 | 0.9 | 1.7 | 0.00 | 0.00 | 0.00 | 45 | 1011.4 |
| 20260504001849 | 51 | 119 | 0.9 | 2.6 | 0.00 | 0.00 | 0.00 | 45 | 1011.7 |
| 20260504001346 | 52 | 119 | 0.0 | 1.7 | 0.00 | 0.00 | 0.00 | 45 | 1011.6 |
| 20260504000842 | 52 | 186 | 0.0 | 0.9 | 0.00 | 0.00 | 0.00 | 42 | 1011.5 |
| 20260504000340 | 52 | 147 | 0.0 | 1.7 | 0.00 | 0.00 | 0.00 | 40 | 1011.4 |
| 20260503235837 | 53 | 144 | 0.0 | 0.0 | 0.00 | 0.00 | 0.00 | 40 | 1011.5 |
| 20260503235335 | 53 | 129 | 0.0 | 2.6 | 0.00 | 0.00 | 0.00 | 39 | 1011.3 |
| 20260503234832 | 53 | 75 | 0.9 | 1.7 | 0.00 | 0.00 | 0.00 | 40 | 1011.3 |
| 20260503234330 | 54 | 130 | 0.0 | 1.7 | 0.00 | 0.00 | 0.00 | 38 | 1011.2 |
| 20260503233827 | 54 | 79 | 0.0 | 1.7 | 0.00 | 0.00 | 0.00 | 38 | 1011.2 |
| 20260503233323 | 55 | 237 | 0.0 | 1.7 | 0.00 | 0.00 | 0.00 | 39 | 1011.1 |
| 20260503232820 | 55 | 233 | 0.0 | 4.3 | 0.00 | 0.00 | 0.00 | 38 | 1011.0 |
| 20260503232317 | 55 | 274 | 4.3 | 4.3 | 0.00 | 0.00 | 0.00 | 37 | 1011.1 |
| 20260503231815 | 56 | 241 | 1.7 | 4.3 | 0.00 | 0.00 | 0.00 | 36 | 1011.0 |
| 20260503231312 | 56 | 131 | 0.0 | 3.5 | 0.00 | 0.00 | 0.00 | 36 | 1010.9 |
| 20260503230808 | 56 | 294 | 0.9 | 5.2 | 0.00 | 0.00 | 0.00 | 38 | 1010.9 |
| 20260503230305 | 56 | 324 | 1.7 | 6.1 | 0.00 | 0.00 | 0.00 | 35 | 1011.1 |
| 20260503225802 | 57 | 268 | 4.3 | 4.3 | 0.00 | 0.00 | 0.00 | 36 | 1010.6 |
| 20260503225258 | 57 | 273 | 2.6 | 7.8 | 0.00 | 0.00 | 0.00 | 34 | 1010.7 |
| 20260503224755 | 57 | 275 | 1.7 | 4.3 | 0.00 | 0.00 | 0.00 | 35 | 1010.9 |
| 20260503224252 | 56 | 292 | 2.6 | 6.1 | 0.00 | 0.00 | 0.00 | 37 | 1010.9 |
| 20260503223750 | 56 | 141 | 4.3 | 6.1 | 0.00 | 0.00 | 0.00 | 35 | 1010.5 |
| 20260503223247 | 56 | 254 | 2.6 | 5.2 | 0.00 | 0.00 | 0.00 | 36 | 1010.7 |
| 20260503222743 | 56 | 326 | 4.3 | 6.1 | 0.00 | 0.00 | 0.00 | 35 | 1010.6 |
| 20260503222241 | 56 | 343 | 2.6 | 3.5 | 0.00 | 0.00 | 0.00 | 34 | 1010.6 |
| 20260503221740 | 56 | 171 | 2.6 | 4.3 | 0.00 | 0.00 | 0.00 | 32 | 1010.6 |
| 20260503221237 | 57 | 314 | 4.3 | 4.3 | 0.00 | 0.00 | 0.00 | 32 | 1010.5 |
| 20260503220733 | 56 | 289 | 1.7 | 7.0 | 0.00 | 0.00 | 0.00 | 33 | 1010.6 |
| 20260503220230 | 56 | 182 | 1.7 | 7.8 | 0.00 | 0.00 | 0.00 | 34 | 1010.6 |
| 20260503215727 | 57 | 255 | 2.6 | 9.6 | 0.00 | 0.00 | 0.00 | 31 | 1010.7 |
| 20260503215224 | 58 | 304 | 5.2 | 10.4 | 0.00 | 0.00 | 0.00 | 31 | 1010.5 |
| 20260503214723 | 58 | 267 | 3.5 | 5.2 | 0.00 | 0.00 | 0.00 | 31 | 1010.4 |
| 20260503214219 | 57 | 316 | 3.5 | 6.1 | 0.00 | 0.00 | 0.00 | 33 | 1010.5 |
| 20260503213717 | 58 | 307 | 2.6 | 5.2 | 0.00 | 0.00 | 0.00 | 31 | 1010.6 |
| 20260503213214 | 57 | 306 | 2.6 | 6.1 | 0.00 | 0.00 | 0.00 | 32 | 1010.6 |
| 20260503212711 | 58 | 212 | 2.6 | 7.0 | 0.00 | 0.00 | 0.00 | 31 | 1010.5 |
| 20260503212209 | 58 | 234 | 2.6 | 7.0 | 0.00 | 0.00 | 0.00 | 30 | 1010.5 |
| 20260503211706 | 58 | 342 | 1.7 | 6.1 | 0.00 | 0.00 | 0.00 | 32 | 1010.6 |
| 20260503211201 | 58 | 203 | 1.7 | 6.1 | 0.00 | 0.00 | 0.00 | 30 | 1010.5 |
| 20260503210657 | 58 | 313 | 3.5 | 8.7 | 0.00 | 0.00 | 0.00 | 31 | 1010.7 |
| 20260503210154 | 58 | 312 | 3.5 | 8.7 | 0.00 | 0.00 | 0.00 | 31 | 1010.4 |
| 20260503205649 | 59 | 191 | 4.3 | 10.4 | 0.00 | 0.00 | 0.00 | 30 | 1010.5 |
| 20260503205146 | 58 | 293 | 6.1 | 7.8 | 0.00 | 0.00 | 0.00 | 32 | 1010.5 |
| 20260503204643 | 59 | 190 | 2.6 | 6.1 | 0.00 | 0.00 | 0.00 | 30 | 1010.5 |
| 20260503204140 | 58 | 297 | 5.2 | 7.8 | 0.00 | 0.00 | 0.00 | 31 | 1010.5 |
| 20260503203637 | 58 | 208 | 1.7 | 14.8 | 0.00 | 0.00 | 0.00 | 30 | 1010.4 |
| 20260503203135 | 59 | 261 | 3.5 | 9.6 | 0.00 | 0.00 | 0.00 | 29 | 1010.9 |
| 20260503202632 | 58 | 38 | 3.5 | 9.6 | 0.00 | 0.00 | 0.00 | 30 | 1010.7 |
| 20260503202130 | 58 | 323 | 3.5 | 14.8 | 0.00 | 0.00 | 0.00 | 30 | 1010.9 |
| 20260503201628 | 59 | 302 | 2.6 | 7.0 | 0.00 | 0.00 | 0.00 | 28 | 1010.9 |
| 20260503201125 | 59 | 317 | 4.3 | 8.7 | 0.00 | 0.00 | 0.00 | 29 | 1010.9 |
| 20260503200621 | 58 | 286 | 7.0 | 10.4 | 0.00 | 0.00 | 0.00 | 29 | 1011.0 |
| 20260503200118 | 57 | 243 | 4.3 | 9.6 | 0.00 | 0.00 | 0.00 | 32 | 1010.6 |
| 20260503195615 | 57 | 307 | 3.5 | 8.7 | 0.00 | 0.00 | 0.00 | 33 | 1010.9 |
| 20260503195112 | 57 | 300 | 6.1 | 7.8 | 0.00 | 0.00 | 0.00 | 31 | 1011.2 |
| 20260503194610 | 58 | 195 | 2.6 | 5.2 | 0.00 | 0.00 | 0.00 | 34 | 1011.2 |
| 20260503194109 | 55 | 310 | 3.5 | 4.3 | 0.00 | 0.00 | 0.00 | 35 | 1011.2 |
| 20260503193607 | 55 | 292 | 3.5 | 11.3 | 0.00 | 0.00 | 0.00 | 32 | 1011.3 |
| 20260503193102 | 54 | 325 | 6.1 | 15.6 | 0.00 | 0.00 | 0.00 | 33 | 1011.0 |
| 20260503192558 | 56 | 298 | 3.5 | 6.1 | 0.00 | 0.00 | 0.00 | 32 | 1011.1 |
| 20260503192054 | 56 | 304 | 3.5 | 10.4 | 0.00 | 0.00 | 0.00 | 33 | 1011.3 |
| 20260503191551 | 56 | 162 | 3.5 | 8.7 | 0.00 | 0.00 | 0.00 | 33 | 1011.1 |
| 20260503191048 | 54 | 305 | 4.3 | 7.8 | 0.00 | 0.00 | 0.00 | 35 | 1011.2 |
| 20260503190545 | 55 | 275 | 4.3 | 10.4 | 0.00 | 0.00 | 0.00 | 33 | 1011.2 |
| 20260503190042 | 52 | 297 | 1.7 | 9.6 | 0.00 | 0.00 | 0.00 | 35 | 1011.3 |
| 20260503185538 | 54 | 324 | 6.1 | 10.4 | 0.00 | 0.00 | 0.00 | 35 | 1011.4 |
| 20260503185039 | 53 | 282 | 2.6 | 8.7 | 0.00 | 0.00 | 0.00 | 35 | 1011.6 |
| 20260503184535 | 55 | 283 | 7.0 | 7.8 | 0.00 | 0.00 | 0.00 | 36 | 1011.7 |
| 20260503184032 | 55 | 259 | 3.5 | 10.4 | 0.00 | 0.00 | 0.00 | 33 | 1011.5 |
| 20260503183528 | 55 | 158 | 2.6 | 8.7 | 0.00 | 0.00 | 0.00 | 37 | 1011.5 |
| 20260503183025 | 53 | 20 | 1.7 | 5.2 | 0.00 | 0.00 | 0.00 | 36 | 1012.0 |
| 20260503182524 | 55 | 269 | 3.5 | 6.1 | 0.00 | 0.00 | 0.00 | 35 | 1011.5 |
| 20260503182021 | 53 | 311 | 5.2 | 9.6 | 0.00 | 0.00 | 0.00 | 39 | 1011.6 |
| 20260503181518 | 54 | 212 | 3.5 | 7.0 | 0.00 | 0.00 | 0.00 | 35 | 1011.7 |
| 20260503181014 | 53 | 226 | 2.6 | 8.7 | 0.00 | 0.00 | 0.00 | 35 | 1011.6 |
| 20260503180512 | 52 | 272 | 5.2 | 7.8 | 0.00 | 0.00 | 0.00 | 36 | 1011.7 |
| 20260503180009 | 51 | 297 | 3.5 | 13.9 | 0.00 | 0.00 | 0.00 | 37 | 1011.5 |
| 20260503175507 | 53 | 280 | 6.1 | 9.6 | 0.00 | 0.00 | 0.00 | 36 | 1011.8 |
| 20260503175003 | 53 | 256 | 2.6 | 10.4 | 0.00 | 0.00 | 0.00 | 38 | 1011.9 |
| 20260503174501 | 53 | 67 | 1.7 | 6.1 | 0.00 | 0.00 | 0.00 | 36 | 1011.9 |
| 20260503173956 | 54 | 288 | 4.3 | 7.8 | 0.00 | 0.00 | 0.00 | 37 | 1012.0 |
| 20260503173452 | 52 | 247 | 2.6 | 12.2 | 0.00 | 0.00 | 0.00 | 40 | 1012.0 |
| 20260503172949 | 52 | 260 | 3.5 | 8.7 | 0.00 | 0.00 | 0.00 | 39 | 1011.9 |
| 20260503172446 | 53 | 269 | 3.5 | 10.4 | 0.00 | 0.00 | 0.00 | 37 | 1011.9 |
| 20260503171943 | 52 | 305 | 3.5 | 8.7 | 0.00 | 0.00 | 0.00 | 39 | 1012.1 |
| 20260503171439 | 54 | 1 | 3.5 | 6.1 | 0.00 | 0.00 | 0.00 | 40 | 1012.0 |
| 20260503170937 | 52 | 204 | 2.6 | 7.8 | 0.00 | 0.00 | 0.00 | 40 | 1011.9 |
| 20260503170433 | 50 | 336 | 4.3 | 7.8 | 0.00 | 0.00 | 0.00 | 41 | 1012.2 |